Weather History for PAWD - May, 2014

Change the Weather History Date:

Monday, May 19, 2014

  Actual Average Record
Temperature  
Mean Temperature 54 °F -  
Max Temperature 63 °F 52 °F 73 °F (1993)
Min Temperature 46 °F 38 °F 30 °F (1999)
Degree Days  
Heating Degree Days 12    
Growing Degree Days 4 (Base 50)    
Moisture  
Dew Point 24 °F    
Average Humidity 33    
Maximum Humidity 48    
Minimum Humidity 23    
Precipitation  
Precipitation 0.00 in - - ()
Sea Level Pressure  
Sea Level Pressure 29.69 in    
Wind  
Wind Speed 17 mph (NW)    
Max Wind Speed 26 mph    
Max Gust Speed 38 mph    
Visibility 10 miles    
Events      
Averages and records for this station are not official NWS values.
T = Trace of Precipitation, MM = Missing Value Source: NWS Daily Summary

Daily Weather History Graph

Daily Weather History Graph

Search for Another Location

Airport or City:

Trip Planner

Search our weather history database for the weather conditions in past years. The results will help you decide how hot, cold, wet, or windy it might be!

Date:

Astronomy

May. 19, 2014 Rise Set
Actual Time 5:09 AM AKDT 10:40 PM AKDT
Civil Twilight 4:01 AM AKDT 11:49 PM AKDT
Nautical Twilight 2:26 AM AKDT 1:21 AM AKDT
Astronomical Twilight Sun does not rise Sun does not rise
Moon 2:06 AM AKDT (5/19) 10:50 AM AKDT (5/19)
Length of Visible Light 19h 48m
Length of Day
17h 31m
Waning Gibbous, 69% of the Moon is Illuminated
May 19
Waning Gibbous
May 21
Last Quarter
May 28
New
Jun 5
First Quarter
Jun 12
Full

Hourly Weather History & Observations

Time (AKDT) Temp. Windchill Dew Point Humidity Pressure Visibility Wind Dir Wind Speed Gust Speed Precip Events Conditions
12:53 AM 48.9 °F - 30.0 °F 48% 29.70 in 10.0 mi North 11.5 mph - N/A   Clear
1:53 AM 50.0 °F - 25.0 °F 38% 29.70 in 10.0 mi North 18.4 mph 28.8 mph N/A   Clear
2:53 AM 48.9 °F - 24.1 °F 38% 29.70 in 10.0 mi NNW 11.5 mph 25.3 mph N/A   Clear
3:53 AM 48.9 °F - 21.9 °F 35% 29.70 in 10.0 mi NNW 21.9 mph 38.0 mph N/A   Clear
5:53 AM 46.0 °F 40.2 °F 24.1 °F 42% 29.70 in 10.0 mi NNW 12.7 mph 23.0 mph N/A   Clear
6:53 AM 46.0 °F 38.0 °F 25.0 °F 44% 29.70 in 10.0 mi NW 21.9 mph 28.8 mph N/A   Clear
7:53 AM 46.9 °F - 25.0 °F 42% 29.70 in 10.0 mi NNW 20.7 mph 35.7 mph N/A   Clear
8:53 AM 48.0 °F - 25.0 °F 41% 29.70 in 10.0 mi NW 26.5 mph 35.7 mph N/A   Clear
9:53 AM 50.0 °F - 25.0 °F 38% 29.69 in 10.0 mi NNW 18.4 mph 34.5 mph N/A   Overcast
10:53 AM 52.0 °F - 26.1 °F 37% 29.69 in 10.0 mi NW 21.9 mph 32.2 mph N/A   Overcast
11:53 AM 53.1 °F - 26.1 °F 35% 29.68 in 10.0 mi NW 19.6 mph 35.7 mph N/A   Mostly Cloudy
12:53 PM 54.0 °F - 24.1 °F 31% 29.68 in 10.0 mi NW 20.7 mph 28.8 mph N/A   Partly Cloudy
1:53 PM 55.9 °F - 24.1 °F 29% 29.68 in 10.0 mi WNW 21.9 mph 34.5 mph N/A   Mostly Cloudy
2:53 PM 55.9 °F - 24.1 °F 29% 29.68 in 10.0 mi NW 17.3 mph 29.9 mph N/A   Clear
3:53 PM 59.0 °F - 24.1 °F 26% 29.68 in 10.0 mi WNW 13.8 mph 27.6 mph N/A   Mostly Cloudy
4:53 PM 59.0 °F - 24.1 °F 26% 29.68 in 10.0 mi NW 19.6 mph 25.3 mph N/A   Overcast
5:53 PM 61.0 °F - 23.0 °F 23% 29.67 in 10.0 mi NW 19.6 mph 29.9 mph N/A   Overcast
6:53 PM 59.0 °F - 21.9 °F 24% 29.68 in 10.0 mi NW 20.7 mph 29.9 mph N/A   Overcast
7:53 PM 57.9 °F - 23.0 °F 26% 29.68 in 10.0 mi NW 17.3 mph 26.5 mph N/A   Overcast
8:53 PM 55.9 °F - 21.9 °F 27% 29.70 in 10.0 mi NW 15.0 mph 29.9 mph N/A   Overcast
9:53 PM 55.0 °F - 21.0 °F 27% 29.71 in 10.0 mi NW 12.7 mph 21.9 mph N/A   Unknown
10:53 PM 54.0 °F - 21.9 °F 29% 29.72 in 10.0 mi NW 16.1 mph 26.5 mph N/A   Mostly Cloudy
11:53 PM 53.1 °F - 21.9 °F 30% 29.74 in 10.0 mi NW 15.0 mph 24.2 mph N/A   Mostly Cloudy